Regional Weather Roundup
Issued by NWS Goodland, KS

Home | Current Version | Previous Version | Graphics & Text | Print | Product List | Glossary On
Versions: 1 2 3 4 5 6 7 8 9 10 11 12 13 14 15 16 17 18 19 20 21 22 23 24 25 26 27 28 29 30 31 32 33 34 35 36 37 38 39 40 41 42 43 44 45 46 47 48 49 50
000
ASUS43 KGLD 201708
RWRGLD

GOODLAND FORECAST AREA HOURLY WEATHER ROUNDUP
NATIONAL WEATHER SERVICE GOODLAND KS
1000 AM MST MON FEB 20 2017

...OFFICIAL OBSERVATIONS...

CITY           SKY/WX    TMP DP  RH WIND       PRES   REMARKS
GOODLAND KS    SUNNY     55  17  22 N33G45    29.93R
HILL CITY KS   SUNNY     60  28  29 NW25G36   29.84R
IMPERIAL NEB   MOSUNNY   53  23  31 NW26G37   29.90R
MCCOOK NEB     SUNNY     57  34  41 N28G43    29.85R
AKRON CO       SUNNY     53  17  24 N23G30    29.98R
BURLINGTON CO  SUNNY     55  16  21 N31G43    29.96R
LIMON CO       SUNNY     50  14  23 NW16      30.01S
$$

...UNOFFICIAL OBSERVATIONS...

CITY           SKY/WX    TMP DP  RH WIND       PRES   REMARKS
LENORA KS        N/A     57  32  39 NW18        N/A
NORTON KS      SUNNY     57  25  28 NW30      29.82R
SHARON SPRINGS   N/A     57  21  24 N24G39      N/A
TRENTON NEB      N/A     55  32  41 N18         N/A
KIT CARSON CO    N/A     56  19  23 MISG        N/A
YUMA CO        FAIR      52  19  28 NW28G35   29.97R
$$




USA.gov is the U.S. government's official web portal to all federal, state and local government web resources and services.